This is the latest recevied weather packets stored in our database for station/object WD4ITN. If no packets are shown the sender has not sent any weather packets the latest 10 day(s).
| Time | Temp. | Humidity | Pressure | Rain* | Wind** | Luminosity | Snow |
|---|---|---|---|---|---|---|---|
| 1787520510 | 21.67° C | 54% | 1014.2 hPa | 0.51 mm | - | - | - |
| 1787520213 | 22.22° C | 55% | 1014.3 hPa | 0.51 mm | - | - | - |
| 1787519909 | 22.22° C | 59% | 1015.1 hPa | 0.51 mm | - | - | - |
| 1787519612 | 22.22° C | 55% | 1015.1 hPa | 0.51 mm | - | - | - |
| 1787519307 | 21.67° C | 54% | 1015 hPa | 0.51 mm | - | - | - |
| 1787519004 | 22.22° C | 53% | 1015 hPa | 0.51 mm | - | - | - |
| 1787518703 | 22.22° C | 53% | 1015.1 hPa | 0.51 mm | - | - | - |
| 1787518406 | 22.78° C | 55% | 1014.9 hPa | 0.51 mm | - | - | - |
| 1787518123 | 22.78° C | 54% | 1014.9 hPa | 0.51 mm | - | - | - |
| 1787517819 | 22.22° C | 56% | 1014.8 hPa | 0.51 mm | - | - | - |
| 1787517513 | 22.22° C | 56% | 1014.9 hPa | 0.51 mm | - | - | - |
| 1787517196 | 22.22° C | 56% | 1014.8 hPa | 0.51 mm | - | - | - |
| 1787516916 | 22.22° C | 54% | 1014.8 hPa | 0.51 mm | - | - | - |
| 1787516617 | 22.22° C | 57% | 1014.7 hPa | 0.51 mm | - | - | - |
| 1787516307 | 22.22° C | 55% | 1014.9 hPa | 0.51 mm | - | - | - |
| 1787516007 | 21.67° C | 56% | 1014.7 hPa | 0.51 mm | - | - | - |
| 1787515704 | 21.11° C | 57% | 1014.9 hPa | 0.51 mm | - | - | - |
| 1787515402 | 21.11° C | 59% | 1015 hPa | 0.51 mm | - | - | - |
| 1787515094 | 21.11° C | 60% | 1014.8 hPa | 0.51 mm | - | - | - |
| 1787514794 | 21.11° C | 56% | 1014.9 hPa | 0.51 mm | - | - | - |
| 1787514498 | 21.67° C | 59% | 1014.8 hPa | 0.51 mm | - | - | - |
| 1787514195 | 21.67° C | 59% | 1014.8 hPa | 0.51 mm | - | - | - |
| 1787513913 | 22.22° C | 55% | 1014.8 hPa | 0.51 mm | - | - | - |
| 1787513601 | 22.22° C | 56% | 1014.7 hPa | 0.51 mm | - | - | - |
| 1787513298 | 22.22° C | 55% | 1014.7 hPa | 0.51 mm | - | - | - |
* Rain since midnight (hover to see other rain measurements)
** Current wind speed in m/s (hover to see current wind gust speed)